Regional Weather Roundup
Issued by NWS

Home | Current Version | Previous Version | Text Only | Print | Product List | Glossary On
Versions: 1 2 3 4 5 6 7 8 9 10 11 12 13 14 15 16 17 18 19 20 21 22 23 24 25 26 27 28 29 30 31 32 33 34 35 36 37 38 39 40 41 42 43 44 45 46 47 48 49 50
000
ASUS44 KBMX 302110
RWRAL

ALABAMA REGIONAL WEATHER ROUNDUP
NATIONAL WEATHER SERVICE BIRMINGHAM AL
400 PM CDT SAT MAY 30 2015

NOTE: "FAIR" INDICATES FEW OR NO CLOUDS BELOW 12,000 FEET
WITH NO SIGNIFICANT WEATHER AND/OR OBSTRUCTIONS TO VISIBILITY.

THE REMARK "TC" DENOTES TEMPERATURE IN DEGREES CELSIUS.

ALZ001>011-014-016>018-020-302200-
NORTH ALABAMA

CITY           SKY/WX    TMP DP  RH WIND       PRES   REMARKS
MUSCLE SHOALS  LGT RAIN  79  66  64 S16       30.05S
HUNTSVILLE     PTSUNNY   85  65  51 SW12      30.04F
DECATUR        MOSUNNY   85  65  51 S12       30.04F
HALEYVILLE     FAIR      82  67  60 S5        30.08F
GADSDEN        MOSUNNY  N/A N/A N/A S8        30.05F
$$

ALZ012-013-022-023-030>036-040>044-302200-
WEST CENTRAL ALABAMA

CITY           SKY/WX    TMP DP  RH WIND       PRES   REMARKS
TUSCALOOSA     MOSUNNY   88  64  44 S12       30.03F
$$

ALZ015-024>027-033>036-040>044-302200-
CENTRAL ALABAMA

CITY           SKY/WX    TMP DP  RH WIND       PRES   REMARKS
BIRMINGHAM     PTSUNNY   83  67  58 SE7       30.08F
MONTGOMERY     MOSUNNY   89  63  41 S5        30.05F HX  90
SHELBY CO ARPT MOSUNNY   86  64  47 S7        30.06F
MAXWELL AFB    SUNNY     88  65  45 S6        30.04F HX  90
GREENVILLE     PTSUNNY   86  64  47 SE5       30.04
$$

ALZ019-021-028-029-037-038-045>048-302200-
EAST CENTRAL ALABAMA

CITY           SKY/WX    TMP DP  RH WIND       PRES   REMARKS
ANNISTON       MOSUNNY   86  62  44 VRB6      30.06F
ALEXANDER CITY SUNNY     87  62  42 SE3       30.08F
AUBURN         SUNNY     82  59  44 CALM      30.09F
$$

ALZ051>064-302200-
SOUTHWEST ALABAMA

CITY           SKY/WX    TMP DP  RH WIND       PRES   REMARKS
MOBILE         MOSUNNY   84  66  54 S13       30.04F
BROOKLEY FIELD MOSUNNY   84  69  60 S9        30.05F
EVERGREEN      PTSUNNY   82  71  69 E3        30.05F
$$

ALZ049-050-065>069-302200-
SOUTHEAST ALABAMA

CITY           SKY/WX    TMP DP  RH WIND       PRES   REMARKS
DOTHAN         MOSUNNY   85  61  44 S7        30.08F
OZARK          SUNNY     89  63  42 E5        30.04F
TROY           MOSUNNY   88  63  43 SE7       30.06F
EUFAULA        FAIR      91  62  37 CALM      30.04F HX  91
$$


USA.gov is the U.S. government's official web portal to all federal, state and local government web resources and services.